Regional Weather Roundup
Issued by NWS Green Bay, WI

Home | Current Version | Previous Version | Text Only | Print | Product List | Glossary On
Versions: 1 2 3 4 5 6 7 8 9 10 11 12 13 14 15 16 17 18 19 20 21 22 23 24 25 26 27 28 29 30 31 32 33 34 35 36 37 38 39 40 41 42 43 44 45 46 47 48 49 50
000
ASUS43 KGRB 020411
RWRGRB

NORTH-CENTRAL AND NORTHEAST WISCONSIN REGIONAL WEATHER ROUNDUP
NATIONAL WEATHER SERVICE GREEN BAY WI
1100 PM CDT SAT AUG 01 2015

WIZ005-009-010>012-018-019-020500-
NORTH CENTRAL WISCONSIN

CITY           SKY/WX    TMP DP  RH WIND       PRES   REMARKS
IRONWOOD       CLEAR     66  55  68 SW7       29.73F
MANITOWISH WTR PTCLDY    57  57  99 CALM      29.80S
ARBOR VITAE    CLEAR     64  56  75 CALM      29.81S
EAGLE RIVER    CLEAR     60  52  75 SW7       29.80F
LAND O LAKES   CLEAR     58  53  85 CALM      29.81S
RHINELANDER    CLEAR     62  55  77 SW7       29.82F
PHILLIPS       CLEAR     65  57  77 S5        29.80F
ANTIGO         CLEAR     61  56  83 SW6       29.84S
TOMAHAWK       CLEAR     57  55  93 CALM      29.82F
MERRILL        NOT AVBL
$$

WIZ013-073-020500-
NORTHEAST WISCONSIN

CITY           SKY/WX    TMP DP  RH WIND       PRES   REMARKS
IRON MOUNTAIN  CLEAR     62  53  72 SE3       29.78F
MARINETTE      CLEAR     68  52  56 SW5       29.78F
OCONTO         PTCLDY    61  56  84 CALM      29.80F
$$

WIZ017-030-035>037-045-020500-
CENTRAL WISCONSIN

CITY           SKY/WX    TMP DP  RH WIND       PRES   REMARKS
MEDFORD        CLEAR     63  58  85 S3        29.84S
WAUSAU         CLEAR     68  57  68 SW6       29.82S
MOSINEE        CLEAR     61  57  88 S3        29.85S
MARSHFIELD     CLEAR     65  59  81 SW5       29.84F
WISC RAPIDS    CLEAR     67  58  72 CALM      29.85F
STEVENS POINT  CLEAR     62  55  78 CALM      29.84F
WAUPACA        CLEAR     65  59  80 CALM      29.83F
SHAWANO        CLEAR     68  55  64 CALM      29.82F
CLINTONVILLE   CLEAR     63  54  72 SW6       29.82F
$$

WIZ038-039-048-051-020500-
FOX VALLEY

CITY           SKY/WX    TMP DP  RH WIND       PRES   REMARKS
NWS GREEN BAY  CLEAR     63  56  78 S5        29.82F
APPLETON       PTCLDY    70  52  52 VRB5      29.84F
OSHKOSH        CLEAR     68  58  70 SW3       29.83F
FOND DU LAC    CLEAR     69  60  73 SW6       29.84F
$$

WIZ022-050-052-020500-
EAST CENTRAL WISCONSIN

CITY           SKY/WX    TMP DP  RH WIND       PRES   REMARKS
STURGEON BAY   CLEAR     66  54  63 S6        29.83F
MANITOWOC      CLEAR     66  56  70 MISG      29.84F
SHEBOYGAN      CLEAR     63  58  83 CALM      29.84F
$$

LMZ563-521-522-541>543-020500-
LAKESHORE

STATION/POSITION TIME  TEMP    WIND        PRES    VSBY  WAVE
                       AIR SEA DIR/SP/G                  HT/PER
                 (UTC) (F)     (DEG/KT/KT) (MB)    (MI)  (FT/S)
SHEBOYGAN LKSHOR 0400   69     210/  5/  5 1010.4F
KEWAUNEE LKSHORE 0300   65     170/  4/  4 1009.7F
ALGOMA MARINA    0342          210/  7/  8   N/A
NORTHPORT PIER   0300   69     180/  3/  5 1008.8F
N MID LAKE BUOY  0350   70 69  210/ 12/ 14 1008.0F         2/ 4
SISTER BAY LKSHO 0344   73     220/  9/ 11   N/A
CHAMBERS ISLAND  0300   70     190/  3/  6 1009.1S
MENOMINEE LKSHOR 0300   72     220/  6/  7 1010.1R
$$


USA.gov is the U.S. government's official web portal to all federal, state and local government web resources and services.